GFSFLT2_925_spd_000.txt.gz
Wind_Speed
3 3 4 6 4 3 4 4 5 5 6 7 7 7 8 9 9 7 7 8 9 8 8 7 8 8 8 8 10 11 11 9
5 3 3 3 3 6 5 3 5 5 6 6 7 7 8 8 10 11 11 13 13 12 12 12 11 9 8 9 11 11 12 9
5 3 3 3 3 4 6 6 4 3 4 5 3 1 3 6 6 8 9 14 14 14 13 12 11 10 11 11 9 6 10 8
5 2 3 3 1 0 3 3 4 5 3 2 1 8 12 15 11 21 24 21 21 16 12 11 8 8 8 8 9 10 12 11
5 3 1 1 1 2 2 6 4 4 5 4 1 4 7 11 13 24 37 27 21 24 16 8 9 12 13 16 19 23 22 22
4 6 6 7 6 7 8 8 9 8 8 7 4 3 1 5 8 14 20 20 23 29 20 10 19 17 19 19 21 24 23 26
2 5 6 7 8 8 10 9 9 9 9 9 7 6 5 3 3 5 6 5 11 19 16 15 17 24 20 19 18 20 24 29
3 4 5 6 8 9 9 8 8 9 9 9 8 6 5 3 3 6 8 12 19 22 28 21 22 17 17 16 19 18 19 25
5 5 7 8 8 8 8 8 8 9 10 10 10 9 7 4 4 7 9 7 9 20 24 24 25 22 19 16 18 19 21 21
6 5 7 8 8 7 8 8 8 9 9 9 9 9 8 6 5 5 6 8 8 8 7 7 11 17 22 19 22 20 20 22
7 7 7 7 8 8 8 7 7 7 8 7 7 7 6 6 5 5 7 8 8 10 10 8 10 9 13 20 24 23 22 22
8 7 7 7 7 7 6 6 5 4 5 5 4 4 4 5 5 5 6 7 8 10 10 10 10 11 16 16 17 23 23 19
10 10 9 8 7 6 6 5 5 3 2 3 2 1 2 4 5 7 7 7 7 9 10 11 12 13 14 14 16 17 24 21
13 12 11 10 9 7 7 6 5 4 4 5 5 4 4 4 6 8 9 11 11 10 11 12 11 11 10 16 6 9 12 18
17 15 14 13 11 8 7 8 8 8 8 7 7 8 7 7 8 10 11 12 13 14 14 14 15 14 8 7 5 4 12 9
19 18 17 16 14 12 12 11 11 9 9 10 9 8 9 9 11 12 13 14 15 17 17 18 19 19 18 13 14 16 6 8
20 20 19 18 15 15 13 14 13 12 11 11 10 9 8 10 11 13 15 17 19 20 20 21 22 24 22 22 20 19 20 13
20 21 22 20 17 17 18 17 16 13 11 9 9 8 10 11 11 13 15 18 20 22 24 25 26 27 28 27 25 19 18 15
22 21 22 21 19 18 16 14 12 10 7 7 7 9 10 13 15 17 19 21 23 24 26 28 29 31 31 30 29 27 24 24
22 21 21 21 19 16 13 11 9 6 4 5 7 9 12 15 18 21 23 24 26 27 29 31 31 32 34 34 33 31 28 26

GFSFLT2_925_spd_003.txt.gz
Wind_Speed
1 1 2 4 5 4 3 2 1 1 2 1 2 2 2 3 2 0 4 6 5 3 2 4 4 5 6 7 11 10 10 13
2 2 2 3 3 7 7 6 3 1 1 4 4 2 6 9 5 3 4 3 4 6 6 9 9 9 8 9 12 13 10 11
3 4 5 5 4 4 5 7 7 5 4 1 3 6 5 6 13 9 5 5 11 7 8 9 10 10 13 15 13 11 12 12
4 3 5 5 4 2 1 2 2 2 1 2 2 3 5 5 5 6 10 13 14 9 14 24 12 12 12 13 12 11 13 14
4 4 3 3 1 2 3 2 3 1 1 1 1 1 2 4 5 6 8 12 9 14 14 20 21 21 18 15 13 13 15 16
1 2 1 2 0 2 3 4 4 4 4 3 3 2 1 1 3 3 4 6 9 12 16 11 11 16 12 24 24 23 21 18
2 0 1 1 3 3 4 4 4 3 3 3 2 3 3 2 1 3 4 5 4 6 7 6 13 16 20 20 25 22 23 20
4 5 4 3 3 4 4 4 4 4 4 4 4 3 3 2 2 2 4 5 7 11 14 16 17 19 25 23 23 26 21 19
7 7 8 8 7 7 6 5 5 4 5 5 6 4 4 3 3 4 5 5 8 10 12 16 18 20 22 21 20 20 20 19
11 9 9 9 8 7 6 7 7 7 6 6 5 5 4 3 3 3 5 4 5 7 8 9 10 12 18 17 16 22 24 22
10 9 8 8 7 6 5 6 7 6 6 5 4 4 3 2 3 4 5 5 6 8 8 8 10 12 12 16 18 22 26 24
12 12 11 10 9 8 8 8 7 7 6 5 4 3 2 1 2 4 5 5 6 7 9 10 11 12 15 20 21 20 23 27
14 15 13 13 12 11 11 11 10 9 9 7 5 4 4 3 4 5 6 8 7 8 9 11 11 10 14 17 19 20 24 24
18 18 16 16 15 14 14 13 12 12 10 9 9 8 7 7 6 8 8 11 11 11 10 14 14 13 13 15 8 13 16 12
20 19 18 18 17 15 13 12 12 13 14 14 17 13 12 11 10 11 11 12 14 14 15 15 17 17 18 14 7 7 14 16
20 20 21 20 19 19 18 19 18 18 16 13 12 10 11 13 13 13 13 15 16 17 19 19 20 21 20 20 21 20 11 10
21 22 23 23 21 22 20 20 20 17 15 13 12 12 12 11 12 13 14 15 18 20 23 22 24 24 22 21 22 22 23 13
19 21 24 25 25 25 24 23 18 16 12 10 10 12 10 11 10 11 13 16 18 22 23 25 26 26 26 26 24 20 18 17
18 22 26 28 27 27 24 22 20 17 13 10 9 7 10 10 11 13 15 18 20 22 25 27 27 28 27 27 28 28 27 26
20 24 27 28 28 28 24 21 17 14 11 8 7 10 10 11 13 15 18 20 22 24 26 27 28 29 29 30 31 32 31 30

GFSFLT2_925_spd_006.txt.gz
Wind_Speed
5 2 5 6 7 6 3 1 2 3 3 2 2 1 2 2 3 4 5 4 7 14 10 6 4 6 6 8 11 11 12 12
5 2 6 5 2 7 5 4 1 2 2 3 2 2 2 2 1 4 5 5 4 7 10 8 3 6 7 8 8 9 11 12
4 5 4 1 5 2 2 7 5 4 4 2 4 5 3 1 2 4 2 1 5 1 2 3 3 2 8 11 12 12 10 12
7 6 5 4 5 2 4 5 4 2 2 3 2 3 2 4 3 3 5 8 11 12 7 4 1 3 9 8 10 10 11 16
6 6 5 4 5 2 2 3 3 4 4 3 2 2 3 0 4 3 4 7 7 9 10 16 19 12 9 13 13 14 9 11
2 2 3 5 4 6 7 6 5 4 3 2 3 2 2 2 1 1 4 6 7 8 12 13 14 21 24 23 18 23 18 20
5 5 5 4 4 4 4 7 7 5 4 5 4 3 4 5 3 2 2 3 6 9 11 11 14 11 8 20 21 22 23 20
7 6 5 4 4 6 8 8 7 5 5 3 3 3 3 2 2 2 3 4 6 8 8 13 17 19 18 19 24 23 26 26
7 7 6 6 7 7 6 6 6 6 5 3 4 2 3 3 1 0 1 5 7 9 10 8 10 15 17 17 17 22 26 29
10 10 11 11 10 11 10 9 8 8 7 6 5 6 5 2 1 1 4 2 4 6 10 12 12 13 15 16 18 20 21 22
11 10 9 11 10 9 10 9 10 11 11 10 7 5 4 4 3 2 2 3 4 5 9 11 13 14 16 16 19 22 24 25
10 11 12 12 11 11 9 10 12 10 11 13 11 10 6 5 4 3 2 4 4 7 9 11 13 16 15 19 20 22 22 25
12 13 13 13 13 12 13 13 14 14 15 14 10 10 9 7 5 2 3 5 6 8 9 10 15 17 20 18 16 23 22 26
15 16 15 16 15 16 17 16 18 21 18 19 17 12 12 10 10 7 6 5 8 11 11 11 13 16 15 18 6 16 19 21
16 18 19 19 21 20 19 19 17 13 15 13 17 20 17 15 13 11 10 8 8 10 14 17 18 15 17 16 7 6 13 25
17 19 20 21 21 22 24 19 18 22 24 24 29 27 21 18 14 13 11 9 10 12 12 13 17 18 19 19 23 24 9 12
16 18 21 23 23 24 27 26 22 22 16 15 12 10 9 7 8 11 13 9 9 12 15 19 19 20 20 19 21 24 24 12
11 17 22 25 26 27 26 28 25 17 19 10 8 7 7 3 3 3 5 8 10 13 16 19 21 23 24 24 23 18 17 15
13 19 23 25 26 28 30 27 25 23 20 14 11 8 5 3 6 8 11 13 17 20 22 24 24 26 27 27 27 28 27 26
17 21 23 24 28 31 29 30 23 20 18 12 7 4 4 5 7 11 13 15 20 22 24 24 24 26 28 28 28 26 26 26

GFSFLT2_925_spd_009.txt.gz
Wind_Speed
9 9 10 11 10 9 7 5 3 2 2 3 2 3 4 5 4 3 2 4 5 5 5 2 1 1 6 10 12 13 15 17
12 6 9 8 6 10 10 9 5 3 2 2 0 4 4 4 3 4 4 5 7 6 7 9 7 6 6 6 7 8 11 16
3 7 7 4 1 8 8 10 9 8 9 6 3 4 4 3 2 4 6 8 6 4 4 6 8 6 7 7 9 10 12 13
2 1 4 4 3 7 8 8 8 7 7 6 6 8 3 3 3 3 5 6 6 6 6 5 8 9 9 9 10 11 10 12
1 1 4 5 5 6 8 7 8 6 7 6 8 8 9 8 4 3 5 8 6 3 3 10 13 13 13 9 7 9 10 11
3 2 5 7 4 10 8 10 9 9 7 7 2 5 3 6 8 6 5 3 4 6 6 6 8 11 14 20 23 24 18 16
5 3 5 6 4 8 10 11 10 7 6 7 5 7 5 6 4 4 3 2 5 7 7 9 11 14 16 18 16 16 14 18
8 5 5 6 7 9 8 8 8 7 6 6 7 5 6 7 6 5 5 5 6 6 8 9 10 13 15 16 18 21 21 23
9 7 9 8 8 8 8 9 8 9 9 8 7 7 10 7 7 5 4 2 3 4 7 9 9 9 9 12 15 17 22 22
11 5 11 8 9 8 8 11 11 11 10 10 9 9 5 6 6 8 6 2 4 6 5 8 10 12 13 13 10 15 20 22
11 10 8 7 10 9 10 14 11 12 14 13 11 10 8 6 8 6 2 3 3 3 8 9 11 13 16 16 18 19 19 22
9 10 10 10 12 12 10 10 12 13 18 16 15 12 10 9 8 9 4 5 7 4 5 5 8 14 18 19 17 18 24 25
8 8 9 12 14 11 14 13 16 16 18 16 21 17 15 13 11 8 9 7 4 1 5 7 11 11 17 17 21 18 19 24
8 13 15 16 18 20 20 19 22 24 25 22 24 20 19 17 14 14 11 9 9 8 6 5 8 12 8 14 4 16 16 17
16 17 17 20 23 24 22 23 26 19 15 24 24 25 24 22 18 14 13 12 9 8 8 11 15 9 11 6 3 4 12 19
16 17 18 18 21 28 29 29 26 30 31 24 22 25 27 25 21 18 13 10 7 6 3 4 11 14 17 17 19 22 7 11
11 15 17 19 20 21 29 32 34 30 22 24 15 15 17 24 18 11 7 5 7 7 6 9 13 17 18 20 22 24 22 10
5 12 17 21 23 25 29 29 35 35 25 21 15 12 12 13 14 11 9 6 3 10 15 20 23 27 30 28 24 15 16 16
6 10 17 22 27 31 34 36 37 36 37 25 18 16 13 9 3 2 8 10 12 18 23 29 31 28 31 30 28 26 25 24
12 16 21 24 28 21 23 31 38 39 37 21 15 15 12 8 6 7 7 12 16 22 27 31 31 31 31 30 30 27 25 24

GFSFLT2_925_spd_012.txt.gz
Wind_Speed
12 12 11 8 8 6 4 4 4 5 4 4 5 5 6 5 2 0 1 1 1 1 2 7 5 6 5 7 9 11 13 16
11 10 10 8 7 7 5 5 4 3 4 4 4 4 4 4 3 2 1 0 2 2 2 5 6 6 6 8 10 12 13 12
14 10 8 7 7 9 9 7 8 7 4 6 5 4 3 3 2 3 4 4 3 2 2 4 5 4 6 7 11 13 15 14
11 6 7 8 8 10 10 8 6 6 6 6 6 5 2 1 1 2 3 3 4 5 5 6 7 7 6 6 8 10 12 14
7 4 8 7 8 14 12 9 8 7 7 7 8 7 6 7 6 5 5 6 8 6 4 4 8 10 11 11 8 7 11 13
6 3 7 3 7 11 9 9 9 9 6 6 5 7 6 6 7 7 5 4 5 5 6 7 7 8 10 10 11 14 19 23
6 2 6 5 6 11 11 11 12 12 10 9 8 9 7 7 9 7 6 5 4 6 7 8 11 11 11 13 14 15 15 14
12 8 6 8 6 7 7 9 9 9 10 9 8 8 8 9 9 8 7 6 6 6 5 6 8 10 11 11 11 13 14 17
15 11 8 8 9 9 9 11 12 13 12 11 10 11 9 9 10 10 9 7 6 3 4 4 5 7 9 10 10 9 15 18
16 11 8 8 7 9 10 12 12 13 14 14 12 12 12 12 11 10 7 6 5 3 2 4 5 7 9 11 12 14 16 17
16 12 10 10 8 10 11 12 16 15 16 17 15 13 13 12 12 11 9 9 8 7 4 4 4 7 10 12 12 12 15 18
12 11 10 10 10 11 13 15 16 18 19 20 20 17 15 15 14 14 11 11 12 11 7 5 6 7 8 12 12 15 17 13
13 12 12 13 14 15 16 18 18 20 22 22 25 23 21 18 18 16 16 14 14 14 9 8 7 6 11 12 12 14 7 24
13 13 13 15 17 20 20 20 24 26 26 24 27 28 28 26 24 22 19 18 17 15 11 8 8 7 3 4 3 11 13 11
12 13 14 16 19 22 23 24 25 26 28 28 32 32 32 32 31 27 23 21 21 18 13 10 8 5 3 2 2 3 15 18
14 16 16 19 21 25 28 30 30 35 36 35 32 28 33 35 33 30 25 22 18 14 8 5 1 3 6 2 10 12 4 11
8 12 16 17 19 21 24 31 37 39 39 35 32 29 29 34 32 28 22 18 16 10 2 3 6 9 12 15 21 22 19 8
5 8 12 13 18 23 26 30 34 36 38 39 36 29 25 28 31 25 20 15 12 6 5 7 13 17 20 25 20 10 13 10
7 9 11 14 19 23 27 31 34 36 37 36 33 21 19 19 21 17 16 10 7 6 12 17 23 25 25 28 28 26 25 21
9 10 15 24 28 31 32 29 25 26 27 30 27 24 20 19 21 12 4 5 13 17 19 22 20 20 25 28 30 30 28 26

GFSFLT2_925_spd_015.txt.gz
Wind_Speed
11 10 7 5 3 2 3 3 4 3 2 2 3 3 3 2 1 2 1 2 2 2 2 2 3 6 5 5 6 6 9 11
10 9 8 6 6 4 2 4 4 4 3 3 2 1 1 2 2 2 2 1 1 2 2 1 2 4 6 7 8 7 8 9
12 10 8 5 5 4 4 3 2 2 3 2 1 1 2 2 2 2 2 2 2 2 2 4 5 6 7 10 11 10 9 9
13 10 9 9 7 8 6 7 5 4 2 4 3 2 0 1 2 1 2 3 4 5 5 6 7 8 9 8 10 13 13 13
12 10 10 10 11 12 11 10 8 7 6 6 7 7 6 6 7 7 6 6 7 7 7 5 6 8 10 13 13 14 16 17
14 11 10 8 7 12 13 11 11 10 8 8 9 9 10 10 10 9 8 6 5 4 5 6 6 7 10 11 10 12 12 13
14 11 11 8 7 10 13 12 13 12 11 10 11 11 11 9 9 9 9 8 6 5 6 7 7 7 7 10 10 9 10 11
17 12 9 10 10 9 10 11 12 13 12 11 11 11 13 12 11 10 9 7 7 7 6 5 4 5 5 5 6 7 8 10
18 14 10 10 11 11 11 11 13 13 13 13 12 12 13 13 13 12 11 8 8 7 6 5 4 3 4 5 5 5 8 10
18 14 11 11 10 9 10 11 13 14 14 14 14 14 14 15 14 14 13 11 11 9 6 5 5 5 6 6 7 8 8 10
18 15 13 12 11 11 12 13 14 15 17 18 17 16 15 16 17 16 14 14 14 12 9 8 7 7 8 8 10 11 12 14
16 14 14 14 13 13 14 15 17 17 19 22 21 20 20 19 19 19 19 18 17 16 15 12 10 9 9 11 12 11 15 7
17 16 15 17 17 16 16 20 20 22 22 23 24 25 25 24 24 23 24 24 23 21 19 16 15 12 9 9 14 15 6 13
16 17 17 17 19 17 15 18 20 24 26 27 29 30 30 32 31 31 30 30 27 26 25 21 17 14 6 2 3 3 9 7
17 17 17 17 19 19 19 21 23 28 30 32 34 34 35 37 39 38 36 35 35 33 30 26 21 16 12 6 1 4 4 8
13 15 17 18 18 21 23 26 27 33 35 37 38 38 37 41 44 45 43 38 35 33 29 25 18 13 7 7 3 2 1 4
9 12 13 13 13 16 20 24 29 34 36 38 41 42 38 39 41 46 44 35 28 23 18 16 12 9 2 1 6 5 8 6
8 7 6 8 14 21 26 29 32 34 36 36 38 35 32 32 36 36 31 21 18 14 10 8 4 3 2 8 11 6 6 5
6 9 14 21 27 31 33 34 35 34 31 30 31 31 26 20 18 19 22 21 14 5 5 7 9 8 8 12 13 13 19 17
13 18 25 30 30 31 28 28 30 29 28 27 25 19 8 16 24 20 13 8 8 15 18 23 22 21 16 17 19 21 19 17